Date,TemperatureHighF,TemperatureAvgF,TemperatureLowF,DewpointHighF,DewpointAvgF,DewpointLowF,HumidityHigh,HumidityAvg,HumidityLow,PressureMaxIn,PressureMinIn,WindSpeedMaxMPH,WindSpeedAvgMPH,GustSpeedMaxMPH,PrecipitationSumIn
2013-3-1,40,36,32,34,30,24,91,77,59,0.00,40.00,6,1,9,0.00
2013-3-2,33,31,29,24,21,17,73,64,53,0.00,40.00,8,2,14,0.00
2013-3-3,29,29,29,20,19,19,67,66,65,0.00,40.00,6,3,13,0.00
2013-3-4,47,39,24,29,19,12,86,47,25,0.00,40.00,6,1,9,0.00
2013-3-5,47,40,33,44,34,27,93,79,70,0.00,40.00,19,3,29,4.95
2013-3-6,38,34,30,33,30,27,95,86,76,0.00,40.00,15,4,25,1.65
2013-3-7,34,34,34,29,29,29,81,81,81,0.00,40.00,2,2,7,0.00
2013-3-8,51,41,30,32,26,23,90,55,36,0.00,40.00,6,2,12,0.00
2013-3-9,64,44,25,34,27,22,92,58,23,0.00,40.00,4,1,10,0.00
2013-3-10,73,58,40,40,34,29,81,45,20,0.00,40.00,7,2,13,0.00
2013-3-11,66,59,45,52,40,29,87,52,27,0.00,40.00,12,5,25,0.00
2013-3-12,45,40,34,39,31,28,82,69,52,0.00,40.00,11,4,19,0.00
2013-3-13,38,34,31,32,25,15,84,69,42,0.00,40.00,14,4,24,0.55
2013-3-14,49,36,26,22,18,10,77,51,22,0.00,40.00,7,3,19,0.00
2013-3-15,60,44,26,38,29,17,84,56,37,0.00,40.00,9,2,16,0.00
2013-3-16,71,54,44,50,43,35,90,68,43,0.00,40.00,14,3,22,0.55
2013-3-17,43,36,34,35,32,31,92,86,71,0.00,40.00,3,0,9,4.99
2013-3-18,56,45,35,51,42,33,96,90,80,0.00,40.00,11,3,21,9.52
2013-3-19,52,45,40,45,22,5,80,43,16,0.00,40.00,17,0,29,0.00
2013-3-20,50,39,28,20,16,11,71,40,25,0.00,40.00,16,6,31,0.00
2013-3-21,34,28,24,22,12,7,85,51,32,0.00,40.00,10,4,24,0.00
2013-3-22,49,32,18,21,13,10,87,50,22,0.00,40.00,7,1,15,0.00
2013-3-23,56,40,26,26,20,14,79,49,18,0.00,40.00,6,1,12,0.00
2013-3-24,43,39,37,38,28,18,95,67,37,0.00,40.00,7,2,16,2.79
2013-3-25,40,36,33,38,31,27,95,83,68,0.00,40.00,14,6,24,3.30
2013-3-26,44,37,34,34,31,29,90,79,58,0.00,40.00,9,4,17,2.75
2013-3-27,46,39,32,29,27,24,79,62,41,0.00,40.00,10,3,16,0.00
2013-3-28,56,41,27,28,24,20,89,55,26,0.00,40.00,8,2,16,0.00
2013-3-29,59,43,27,33,26,21,92,56,24,0.00,40.00,9,1,19,0.00
2013-3-30,64,49,32,37,30,27,88,53,24,0.00,40.00,6,1,11,0.00
2013-3-31,58,49,45,49,43,-100,93,81,56,0.00,40.00,7,2,14,1.65